マックホルツ第1彗星

96P/Machholz 1 (2023)

English version
Home page
Updated on November 3, 2020

---------------------------------------------------------------------

・ プロフィール

・ 軌道要素

Epoch 2023 Jan. 16.0 TT = JDT 2459960.5
T 2023 Jan. 31.08465 TT                                 MPCW
q   0.1164254            (2000.0)            P               Q
n   0.18680100     Peri.   14.74858     -0.20313326     -0.50076303
a   3.0307487      Node    93.95410     +0.79107878     -0.59032451
e   0.9615853      Incl.   57.50295     +0.57700195     +0.63305083
P   5.28
From 925 observations 2007 Apr. 9-2017 Aug. 19, mean residual 0".6.
     Nongravitational parameters A1 = -0.01, A2 = -0.0002.

・ 星図

・ 光度変化

        m1 = 12.7 + 5 logΔ + 12.0 log r

---------------------------------------------------------------------

軌道要素はM.P.E.C. 2017-T14に掲載されたものです。
星図はステラナビゲータ Ver.10 (アストロアーツ) で作成したものです。
光度グラフはComet for Windowsで作成したものです。

---------------------------------------------------------------------

Copyright(C) Seiichi Yoshida (comet@aerith.net). All rights reserved.